�������l�o���
Date,Time,MP-1(��Sv/h),MP-2(��Sv/h),MP-3(��Sv/h),MP-4(��Sv/h),MP-5(��Sv/h),MP-6(��Sv/h),MP-7(��Sv/h),MP-8(��Sv/h),����,����(m/s),���J
2022/03/13,00:00,0.599,0.888,0.558,1.098,0.779,0.352,0.616,0.581,���k��,1.2,��
2022/03/13,00:10,0.597,0.889,0.558,1.097,0.778,0.353,0.616,0.581,�k�k��,0.6,��
2022/03/13,00:20,0.597,0.889,0.558,1.098,0.778,0.352,0.616,0.582,��,2.0,��
2022/03/13,00:30,0.597,0.891,0.558,1.098,0.778,0.353,0.617,0.582,���k��,1.5,��
2022/03/13,00:40,0.597,0.891,0.558,1.095,0.778,0.353,0.617,0.582,���k��,2.0,��
2022/03/13,00:50,0.597,0.889,0.559,1.096,0.778,0.353,0.615,0.582,���k��,2.8,��
2022/03/13,01:00,0.598,0.889,0.561,1.098,0.778,0.353,0.617,0.582,�k��,2.2,��
2022/03/13,01:10,0.596,0.888,0.559,1.099,0.778,0.353,0.617,0.581,���k��,1.7,��
2022/03/13,01:20,0.596,0.890,0.560,1.098,0.777,0.353,0.616,0.582,�k��,1.7,��
2022/03/13,01:30,0.597,0.891,0.561,1.098,0.778,0.354,0.616,0.581,�k�k��,2.0,��
2022/03/13,01:40,0.596,0.889,0.560,1.097,0.778,0.352,0.617,0.581,-,CALM,��
2022/03/13,01:50,0.599,0.891,0.559,1.094,0.780,0.353,0.617,0.581,-,CALM,��
2022/03/13,02:00,0.597,0.889,0.559,1.098,0.777,0.353,0.616,0.582,-,CALM,��
2022/03/13,02:10,0.596,0.889,0.558,1.101,0.779,0.353,0.616,0.582,-,CALM,��
2022/03/13,02:20,0.597,0.889,0.558,1.097,0.777,0.353,0.617,0.582,-,CALM,��
2022/03/13,02:30,0.596,0.890,0.560,1.094,0.779,0.352,0.618,0.581,-,CALM,��
2022/03/13,02:40,0.595,0.888,0.558,1.098,0.779,0.353,0.616,0.581,-,CALM,��
2022/03/13,02:50,0.597,0.889,0.558,1.097,0.779,0.354,0.617,0.581,�k��,0.6,��
2022/03/13,03:00,0.597,0.889,0.558,1.096,0.777,0.352,0.617,0.582,�k��,1.2,��
2022/03/13,03:10,0.597,0.889,0.559,1.098,0.780,0.353,0.615,0.582,���k��,1.2,��
2022/03/13,03:20,0.597,0.890,0.558,1.098,0.779,0.354,0.617,0.582,���k��,0.6,��
2022/03/13,03:30,0.595,0.888,0.557,1.096,0.779,0.353,0.617,0.581,�k��,1.7,��
2022/03/13,03:40,0.596,0.888,0.559,1.099,0.776,0.354,0.616,0.580,�k�k��,1.9,��
2022/03/13,03:50,0.596,0.891,0.558,1.097,0.777,0.353,0.615,0.581,�k��,1.7,��
2022/03/13,04:00,0.596,0.892,0.558,1.098,0.779,0.352,0.616,0.583,�k��,2.0,��
2022/03/13,04:10,0.596,0.890,0.558,1.097,0.777,0.352,0.616,0.581,�k��,2.0,��
2022/03/13,04:20,0.597,0.890,0.559,1.098,0.777,0.353,0.616,0.580,�k��,0.9,��
2022/03/13,04:30,0.597,0.890,0.558,1.095,0.779,0.353,0.617,0.581,���k��,0.6,��
2022/03/13,04:40,0.596,0.890,0.558,1.097,0.775,0.352,0.617,0.581,���k��,0.9,��
2022/03/13,04:50,0.597,0.890,0.558,1.098,0.778,0.353,0.616,0.582,��,0.9,��
2022/03/13,05:00,0.596,0.890,0.560,1.097,0.776,0.354,0.617,0.581,���k��,1.2,��
2022/03/13,05:10,0.597,0.889,0.560,1.097,0.777,0.353,0.616,0.581,�k,0.6,��
2022/03/13,05:20,0.598,0.890,0.559,1.099,0.778,0.353,0.618,0.581,-,CALM,��
2022/03/13,05:30,0.597,0.890,0.559,1.098,0.776,0.354,0.614,0.582,�k��,1.1,��
2022/03/13,05:40,0.597,0.890,0.559,1.095,0.778,0.353,0.616,0.580,-,CALM,��
2022/03/13,05:50,0.598,0.889,0.559,1.097,0.777,0.353,0.616,0.582,�k�k��,0.6,��
2022/03/13,06:00,0.594,0.890,0.558,1.097,0.777,0.352,0.617,0.581,�k�k��,0.9,��
2022/03/13,06:10,0.595,0.887,0.558,1.099,0.776,0.354,0.616,0.582,�k��,0.9,��
2022/03/13,06:20,0.597,0.890,0.558,1.096,0.777,0.353,0.616,0.580,���k��,1.2,��
2022/03/13,06:30,0.595,0.891,0.559,1.097,0.777,0.353,0.617,0.583,�k�k��,1.5,��
2022/03/13,06:40,0.598,0.888,0.558,1.099,0.779,0.353,0.616,0.581,�k,1.5,��
2022/03/13,06:50,0.597,0.890,0.559,1.098,0.778,0.353,0.618,0.581,�k�k��,2.0,��
2022/03/13,07:00,0.598,0.890,0.560,1.097,0.778,0.354,0.618,0.581,�k,2.3,��
2022/03/13,07:10,0.599,0.892,0.561,1.099,0.778,0.353,0.616,0.582,�k,2.3,��
2022/03/13,07:20,0.599,0.890,0.560,1.099,0.779,0.354,0.617,0.580,�k�k��,3.1,��
2022/03/13,07:30,0.598,0.892,0.562,1.097,0.779,0.354,0.617,0.582,�k�k��,2.9,��
2022/03/13,07:40,0.597,0.893,0.558,1.099,0.779,0.353,0.617,0.582,�k�k��,2.6,��
2022/03/13,07:50,0.599,0.892,0.559,1.101,0.777,0.354,0.616,0.581,�k�k��,2.5,��
2022/03/13,08:00,0.596,0.891,0.561,1.097,0.779,0.353,0.618,0.583,�k��,0.9,��
2022/03/13,08:10,0.597,0.892,0.561,1.098,0.780,0.354,0.618,0.583,�k��,0.8,��
2022/03/13,08:20,0.596,0.892,0.560,1.101,0.778,0.353,0.617,0.582,�k,1.5,��
2022/03/13,08:30,0.598,0.893,0.560,1.098,0.781,0.355,0.619,0.581,�k�k��,1.5,��
2022/03/13,08:40,0.598,0.893,0.560,1.100,0.776,0.355,0.618,0.584,�k�k��,1.7,��
2022/03/13,08:50,0.598,0.893,0.560,1.099,0.780,0.355,0.617,0.583,�k�k��,1.4,��
2022/03/13,09:00,0.599,0.893,0.561,1.095,0.779,0.354,0.617,0.582,�k��,1.4,��
2022/03/13,09:10,0.598,0.891,0.561,1.100,0.779,0.354,0.616,0.583,�k��,1.9,��
2022/03/13,09:20,0.598,0.892,0.559,1.099,0.779,0.354,0.617,0.582,���k��,2.9,��
2022/03/13,09:30,0.598,0.889,0.560,1.098,0.777,0.353,0.616,0.582,�k�k��,2.8,��
2022/03/13,09:40,0.599,0.887,0.560,1.099,0.780,0.353,0.616,0.582,���k��,3.0,��
2022/03/13,09:50,0.598,0.887,0.562,1.100,0.781,0.356,0.616,0.582,�k��,3.5,��
2022/03/13,10:00,0.599,0.891,0.560,1.100,0.779,0.354,0.615,0.583,�k��,2.0,��
2022/03/13,10:10,0.600,0.889,0.561,1.098,0.778,0.352,0.615,0.582,�k�k��,2.3,��
2022/03/13,10:20,0.597,0.891,0.560,1.098,0.780,0.354,0.616,0.582,�k��,2.6,��
2022/03/13,10:30,0.600,0.890,0.559,1.099,0.780,0.353,0.615,0.582,�k�k��,3.8,��
2022/03/13,10:40,0.598,0.892,0.560,1.100,0.781,0.353,0.615,0.584,�k,3.7,��
2022/03/13,10:50,0.598,0.891,0.560,1.099,0.779,0.354,0.616,0.585,�k,3.9,��
2022/03/13,11:00,0.597,0.892,0.562,1.099,0.778,0.355,0.615,0.583,�k,3.8,��
2022/03/13,11:10,0.599,0.892,0.560,1.099,0.781,0.354,0.615,0.584,�k,3.3,��
2022/03/13,11:20,0.599,0.890,0.562,1.098,0.779,0.354,0.615,0.583,�k,4.6,��
2022/03/13,11:30,0.599,0.891,0.560,1.098,0.779,0.354,0.615,0.583,�k,3.9,��
2022/03/13,11:40,0.601,0.892,0.562,1.098,0.776,0.354,0.615,0.583,�k,3.7,��
2022/03/13,11:50,0.600,0.892,0.560,1.098,0.779,0.354,0.616,0.584,�k,3.9,��
2022/03/13,12:00,0.599,0.892,0.562,1.101,0.781,0.354,0.615,0.583,�k,4.0,��
2022/03/13,12:10,0.600,0.893,0.562,1.100,0.779,0.352,0.616,0.583,�k,4.3,��
2022/03/13,12:20,0.598,0.893,0.561,1.101,0.781,0.354,0.615,0.582,�k,4.2,��
2022/03/13,12:30,0.598,0.893,0.561,1.100,0.779,0.353,0.614,0.581,�k,3.9,��
2022/03/13,12:40,0.599,0.893,0.562,1.100,0.777,0.354,0.617,0.580,�k�k��,3.8,��
2022/03/13,12:50,0.600,0.889,0.562,1.102,0.777,0.355,0.616,0.580,�k,4.5,��
2022/03/13,13:00,0.599,0.889,0.561,1.099,0.777,0.355,0.616,0.580,�k�k��,5.2,��
2022/03/13,13:10,0.598,0.889,0.560,1.100,0.776,0.355,0.615,0.581,�k,4.5,��
2022/03/13,13:20,0.599,0.889,0.559,1.099,0.774,0.354,0.615,0.583,�k,5.2,��
2022/03/13,13:30,0.599,0.890,0.561,1.099,0.776,0.354,0.616,0.584,�k,4.8,��
2022/03/13,13:40,0.600,0.889,0.559,1.100,0.777,0.354,0.616,0.582,�k,4.5,��
2022/03/13,13:50,0.598,0.891,0.562,1.100,0.777,0.354,0.616,0.582,�k,5.2,��
2022/03/13,14:00,0.599,0.892,0.562,1.098,0.778,0.354,0.615,0.583,�k,4.9,��
2022/03/13,14:10,0.599,0.890,0.563,1.097,0.774,0.354,0.616,0.583,�k�k��,5.1,��
2022/03/13,14:20,0.601,0.891,0.561,1.100,0.778,0.356,0.616,0.583,�k,5.3,��
2022/03/13,14:30,0.598,0.891,0.562,1.098,0.776,0.356,0.616,0.583,�k�k��,6.4,��
2022/03/13,14:40,0.599,0.888,0.560,1.101,0.777,0.354,0.617,0.582,�k,6.5,��
2022/03/13,14:50,0.598,0.890,0.562,1.100,0.776,0.355,0.617,0.582,�k�k��,6.1,��
2022/03/13,15:00,0.600,0.891,0.562,1.100,0.777,0.355,0.617,0.580,�k�k��,6.0,��
2022/03/13,15:10,0.597,0.892,0.561,1.102,0.777,0.354,0.617,0.582,�k�k��,6.3,��
2022/03/13,15:20,0.599,0.890,0.561,1.100,0.777,0.355,0.616,0.582,�k�k��,6.8,��
2022/03/13,15:30,0.600,0.888,0.562,1.100,0.776,0.355,0.616,0.581,�k�k��,6.3,��
2022/03/13,15:40,0.599,0.890,0.562,1.099,0.777,0.354,0.617,0.581,�k,5.3,��
2022/03/13,15:50,0.600,0.890,0.561,1.099,0.777,0.355,0.617,0.582,�k,6.6,��
2022/03/13,16:00,0.599,0.893,0.560,1.097,0.779,0.354,0.617,0.582,�k,6.1,��
2022/03/13,16:10,0.598,0.894,0.560,1.101,0.777,0.354,0.618,0.583,�k,6.3,��
2022/03/13,16:20,0.599,0.891,0.562,1.099,0.777,0.354,0.616,0.583,�k,6.5,��
2022/03/13,16:30,0.599,0.893,0.562,1.101,0.777,0.356,0.617,0.585,�k�k��,5.9,��
2022/03/13,16:40,0.600,0.891,0.561,1.099,0.778,0.354,0.617,0.585,�k,6.9,��
2022/03/13,16:50,0.598,0.893,0.561,1.101,0.778,0.355,0.617,0.583,�k,6.0,��
2022/03/13,17:00,0.597,0.892,0.562,1.100,0.776,0.353,0.617,0.583,�k,5.5,��
2022/03/13,17:10,0.598,0.892,0.559,1.099,0.779,0.353,0.616,0.584,�k,5.4,��
2022/03/13,17:20,0.599,0.894,0.561,1.100,0.780,0.354,0.617,0.583,�k,4.0,��
2022/03/13,17:30,0.600,0.892,0.559,1.099,0.779,0.353,0.617,0.584,�k,4.5,��
2022/03/13,17:40,0.598,0.891,0.560,1.101,0.779,0.355,0.617,0.585,�k,3.8,��
2022/03/13,17:50,0.600,0.894,0.561,1.101,0.780,0.355,0.618,0.584,�k,4.5,��
2022/03/13,18:00,0.598,0.891,0.560,1.101,0.780,0.355,0.618,0.584,�k,3.6,��
2022/03/13,18:10,0.599,0.891,0.560,1.099,0.778,0.354,0.618,0.583,�k,3.8,��
2022/03/13,18:20,0.598,0.893,0.562,1.099,0.780,0.354,0.619,0.583,�k,3.3,��
2022/03/13,18:30,0.598,0.891,0.560,1.097,0.778,0.354,0.618,0.583,�k,3.3,��
2022/03/13,18:40,0.599,0.892,0.560,1.101,0.780,0.354,0.619,0.583,�k,2.3,��
2022/03/13,18:50,0.599,0.892,0.561,1.100,0.779,0.354,0.618,0.583,�k,2.0,��
2022/03/13,19:00,0.600,0.891,0.561,1.098,0.778,0.353,0.618,0.583,�k,2.8,��
2022/03/13,19:10,0.598,0.892,0.561,1.101,0.780,0.355,0.618,0.583,�k,2.6,��
2022/03/13,19:20,0.597,0.894,0.561,1.099,0.779,0.354,0.618,0.582,�k,3.1,��
2022/03/13,19:30,0.598,0.892,0.560,1.100,0.778,0.355,0.618,0.583,�k,3.4,��
2022/03/13,19:40,0.599,0.891,0.562,1.100,0.778,0.355,0.618,0.583,�k,3.2,��
2022/03/13,19:50,0.598,0.892,0.560,1.100,0.780,0.354,0.619,0.582,�k,2.9,��
2022/03/13,20:00,0.599,0.890,0.561,1.099,0.779,0.355,0.620,0.581,�k,2.6,��
2022/03/13,20:10,0.597,0.891,0.562,1.100,0.781,0.353,0.618,0.582,���k��,1.2,��
2022/03/13,20:20,0.597,0.892,0.560,1.101,0.779,0.354,0.619,0.581,�k��,1.1,��
2022/03/13,20:30,0.599,0.894,0.559,1.099,0.780,0.352,0.618,0.582,�k�k��,0.9,��
2022/03/13,20:40,0.600,0.892,0.560,1.101,0.779,0.355,0.619,0.583,-,CALM,��
2022/03/13,20:50,0.597,0.893,0.560,1.099,0.779,0.355,0.618,0.583,-,CALM,��
2022/03/13,21:00,0.599,0.891,0.559,1.100,0.778,0.354,0.618,0.583,-,CALM,��
2022/03/13,21:10,0.597,0.892,0.561,1.099,0.779,0.354,0.618,0.581,-,CALM,��
2022/03/13,21:20,0.598,0.892,0.561,1.100,0.778,0.354,0.619,0.582,-,CALM,��
2022/03/13,21:30,0.599,0.891,0.561,1.101,0.779,0.355,0.618,0.583,�쓌,0.6,��
2022/03/13,21:40,0.598,0.893,0.561,1.099,0.777,0.353,0.620,0.582,��쓌,0.8,��
2022/03/13,21:50,0.599,0.891,0.561,1.099,0.779,0.354,0.618,0.583,-,CALM,��
2022/03/13,22:00,0.600,0.893,0.561,1.099,0.780,0.355,0.618,0.582,-,CALM,��
2022/03/13,22:10,0.599,0.891,0.562,1.099,0.779,0.354,0.618,0.583,�쓌,0.6,��
2022/03/13,22:20,0.599,0.892,0.560,1.100,0.779,0.355,0.618,0.582,��쓌,1.2,��
2022/03/13,22:30,0.597,0.892,0.561,1.101,0.780,0.354,0.617,0.584,��,1.9,��
2022/03/13,22:40,0.598,0.892,0.560,1.098,0.778,0.354,0.619,0.582,��쓌,2.3,��
2022/03/13,22:50,0.599,0.891,0.562,1.101,0.780,0.354,0.619,0.584,��쓌,2.5,��
2022/03/13,23:00,0.598,0.892,0.560,1.100,0.780,0.354,0.618,0.582,-,CALM,��
2022/03/13,23:10,0.599,0.892,0.561,1.099,0.778,0.354,0.619,0.584,�쓌,1.9,��
2022/03/13,23:20,0.598,0.893,0.561,1.100,0.779,0.355,0.618,0.582,��쓌,2.0,��
2022/03/13,23:30,0.600,0.891,0.561,1.101,0.777,0.354,0.619,0.582,��쓌,2.8,��
2022/03/13,23:40,0.598,0.890,0.559,1.098,0.781,0.355,0.620,0.582,��쓌,2.3,��
2022/03/13,23:50,0.600,0.893,0.561,1.099,0.780,0.355,0.618,0.581,��쓌,2.3,��
